User: anonymous   Login
Location: Drayton Valley
(53.2170°N, 114.9830°W)
Time: 15:27:03
(UTC-07:00)
Language:

Cosmos 1302 Rocket - Orbit

View from above orbital plane
View from above orbital plane
View from above satellite
View from above satellite

Ground track
Ground track

The orbit data is extracted from the following two-line orbital elements,

1 12792U 81084B   15025.95162763  .00000219  00000-0  82282-4 0  7170
2 12792 074.0288 202.6719 0014294 336.3525 134.4176 14.37235356749595
Epoch (UTC): 25 January 2015 22:50:20
Eccentricity: 0.0014294
inclination: 74.0288°
perigee height: 757 km
apogee height: 778 km
right ascension of ascending node: 202.6719°
argument of perigee: 336.3525°
revolutions per day: 14.37235356
mean anomaly at epoch: 134.4176°
orbit number at epoch: 74959

The dashed part of the orbit path shows where the satellite is in the earth's shadow,  

DLR